sat.trackr.live / text

‹ back to catalog

LUCH-5X (OLYMP-K 2)

NORAD 55841 · 2023-031A

PAYLOAD ACTIVE UNKNOWN

§ Identity

Operator
Country
CIS
Launch date
2023-03-12
Launch site
TYMSC
Launch vehicle
Mass (kg)
RCS (m²)

Purposes: comms

External: N2YO · Heavens-Above · Gunter

§ Orbital elements

Epoch: 2026-05-24T10:55:37.570944Z

Period
1,436.06 min
Inclination
0.0315°
Eccentricity
0.0000543
Mean motion
1.00274145 rev/d
Perigee alt
35,783.6 km
Apogee alt
35,788.2 km
Semi-major
42,164.1 km
B*
0.0000e+0
RAAN
64.1940°
Arg perigee
123.6452°
Mean anomaly
280.1163°
Rev number
1,170

§ Raw data

LUCH-5X (OLYMP-K 2)1 55841U 23031A   26144.45529596  .00000028  00000+0  00000+0 0  99922 55841   0.0315  64.1940 0000543 123.6452 280.1163  1.00274145 11707

JSON: /api/v1/satellites/55841 · /tle

For live sub-satellite position, see the globe view (requires WebGL).

§ Visibility from observer

Set your observer location to see the next 7 days of passes ≥ 10°. The values pass through the URL so the page stays shareable.

No JS? Fill the form by hand. The geolocation button needs JavaScript.